Time,TemperatureF,DewpointF,PressureIn,WindDirection,WindDirectionDegrees,WindSpeedMPH,WindSpeedGustMPH,Humidity,HourlyPrecipIn,Conditions,Clouds,dailyrainin,SoftwareType,DateUTC
2013-11-25 00:01:00,17.0,-0.2,30.17,ESE,112,0.0,13.0,46,0.00,,,0.00,Weather View 32 v70,2013-11-25 05:01:00,
2013-11-25 00:02:00,18.0,0.7,30.17,North,360,1.0,13.0,46,0.00,,,0.00,Weather View 32 v70,2013-11-25 05:02:00,
2013-11-25 00:03:00,17.0,-0.2,30.17,NNW,337,2.0,13.0,46,0.00,,,0.00,Weather View 32 v70,2013-11-25 05:03:00,
2013-11-25 00:08:00,17.0,-0.2,30.17,NNW,337,4.0,13.0,46,0.00,,,0.00,Weather View 32 v70,2013-11-25 05:08:00,
2013-11-25 00:13:00,17.0,-0.2,30.17,SSE,157,0.0,13.0,46,0.00,,,0.00,Weather View 32 v70,2013-11-25 05:13:00,
2013-11-25 00:18:00,17.0,-0.2,30.17,ESE,112,7.0,13.0,46,0.00,,,0.00,Weather View 32 v70,2013-11-25 05:18:00,
2013-11-25 00:23:00,17.0,0.2,30.17,NNW,337,1.0,13.0,47,0.00,,,0.00,Weather View 32 v70,2013-11-25 05:23:00,
2013-11-25 00:28:00,17.0,0.2,30.17,WSW,247,4.0,13.0,47,0.00,,,0.00,Weather View 32 v70,2013-11-25 05:28:00,
2013-11-25 00:33:00,17.0,0.2,30.18,ESE,112,1.0,13.0,47,0.00,,,0.00,Weather View 32 v70,2013-11-25 05:33:00,
2013-11-25 00:38:00,17.0,0.2,30.18,NNW,337,2.0,13.0,47,0.00,,,0.00,Weather View 32 v70,2013-11-25 05:38:00,
2013-11-25 00:43:00,17.0,0.2,30.19,ESE,112,0.0,13.0,47,0.00,,,0.00,Weather View 32 v70,2013-11-25 05:43:00,
2013-11-25 00:48:00,17.0,0.2,30.18,WSW,247,3.0,13.0,47,0.00,,,0.00,Weather View 32 v70,2013-11-25 05:48:00,
2013-11-25 00:53:00,17.0,0.2,30.19,SSE,157,0.0,13.0,47,0.00,,,0.00,Weather View 32 v70,2013-11-25 05:53:00,
2013-11-25 00:58:00,17.0,0.2,30.19,ESE,112,1.0,13.0,47,0.00,,,0.00,Weather View 32 v70,2013-11-25 05:58:00,
2013-11-25 01:03:00,17.0,0.2,30.19,ESE,112,0.0,13.0,47,0.00,,,0.00,Weather View 32 v70,2013-11-25 06:03:00,
2013-11-25 01:08:00,17.0,0.2,30.19,NNW,337,4.0,13.0,47,0.00,,,0.00,Weather View 32 v70,2013-11-25 06:08:00,
2013-11-25 01:13:00,17.0,0.7,30.19,SSW,202,0.0,9.0,48,0.00,,,0.00,Weather View 32 v70,2013-11-25 06:13:00,
2013-11-25 01:18:00,17.0,0.2,30.19,NNW,337,0.0,9.0,47,0.00,,,0.00,Weather View 32 v70,2013-11-25 06:18:00,
2013-11-25 01:23:00,17.0,-0.2,30.19,WNW,292,0.0,10.0,46,0.00,,,0.00,Weather View 32 v70,2013-11-25 06:23:00,
2013-11-25 01:28:00,17.0,0.2,30.19,ESE,112,2.0,10.0,47,0.00,,,0.00,Weather View 32 v70,2013-11-25 06:28:00,
2013-11-25 01:33:00,16.0,-0.7,30.19,NNE,22,1.0,10.0,47,0.00,,,0.00,Weather View 32 v70,2013-11-25 06:33:00,
2013-11-25 01:38:00,17.0,0.2,30.19,ESE,112,0.0,10.0,47,0.00,,,0.00,Weather View 32 v70,2013-11-25 06:38:00,
2013-11-25 01:43:00,17.0,0.2,30.19,ESE,112,0.0,10.0,47,0.00,,,0.00,Weather View 32 v70,2013-11-25 06:43:00,
2013-11-25 01:48:00,16.0,-0.7,30.20,SSE,157,0.0,10.0,47,0.00,,,0.00,Weather View 32 v70,2013-11-25 06:48:00,
2013-11-25 01:53:00,16.0,-0.2,30.20,North,360,0.0,10.0,48,0.00,,,0.00,Weather View 32 v70,2013-11-25 06:53:00,
2013-11-25 01:58:00,16.0,-0.7,30.20,NNW,337,4.0,10.0,47,0.00,,,0.00,Weather View 32 v70,2013-11-25 06:58:00,
2013-11-25 02:03:00,16.0,-0.7,30.20,North,360,2.0,10.0,47,0.00,,,0.00,Weather View 32 v70,2013-11-25 07:03:00,
2013-11-25 02:08:00,16.0,-0.7,30.21,NNW,337,5.0,10.0,47,0.00,,,0.00,Weather View 32 v70,2013-11-25 07:08:00,
2013-11-25 02:13:00,16.0,-0.7,30.21,SE,135,1.0,10.0,47,0.00,,,0.00,Weather View 32 v70,2013-11-25 07:13:00,
2013-11-25 02:18:00,16.0,-0.7,30.20,NNW,337,1.0,10.0,47,0.00,,,0.00,Weather View 32 v70,2013-11-25 07:18:00,
2013-11-25 02:23:00,16.0,-0.2,30.20,NNW,337,0.0,9.0,48,0.00,,,0.00,Weather View 32 v70,2013-11-25 07:23:00,
2013-11-25 02:28:00,16.0,0.2,30.20,WNW,292,0.0,9.0,49,0.00,,,0.00,Weather View 32 v70,2013-11-25 07:28:00,
2013-11-25 02:33:00,16.0,-0.2,30.20,NNW,337,0.0,9.0,48,0.00,,,0.00,Weather View 32 v70,2013-11-25 07:33:00,
2013-11-25 02:38:00,16.0,0.2,30.20,NW,315,0.0,9.0,49,0.00,,,0.00,Weather View 32 v70,2013-11-25 07:38:00,
2013-11-25 02:44:00,16.0,0.2,30.21,NNW,337,5.0,9.0,49,0.00,,,0.00,Weather View 32 v70,2013-11-25 07:44:00,
2013-11-25 02:49:00,16.0,0.2,30.22,NNW,337,1.0,9.0,49,0.00,,,0.00,Weather View 32 v70,2013-11-25 07:49:00,
2013-11-25 02:54:00,15.0,0.1,30.22,NNW,337,0.0,9.0,51,0.00,,,0.00,Weather View 32 v70,2013-11-25 07:54:00,
2013-11-25 02:59:00,15.0,0.5,30.23,NNW,337,0.0,9.0,52,0.00,,,0.00,Weather View 32 v70,2013-11-25 07:59:00,
2013-11-25 03:04:00,15.0,0.5,30.23,NNW,337,2.0,9.0,52,0.00,,,0.00,Weather View 32 v70,2013-11-25 08:04:00,
2013-11-25 03:09:00,15.0,1.0,30.23,WNW,292,0.0,9.0,53,0.00,,,0.00,Weather View 32 v70,2013-11-25 08:09:00,
2013-11-25 03:14:00,15.0,1.0,30.23,NNW,337,5.0,9.0,53,0.00,,,0.00,Weather View 32 v70,2013-11-25 08:14:00,
2013-11-25 03:19:00,15.0,0.5,30.23,NW,315,1.0,9.0,52,0.00,,,0.00,Weather View 32 v70,2013-11-25 08:19:00,
2013-11-25 03:24:00,15.0,1.0,30.24,NNW,337,2.0,9.0,53,0.00,,,0.00,Weather View 32 v70,2013-11-25 08:24:00,
2013-11-25 03:29:00,15.0,1.0,30.24,NNW,337,0.0,9.0,53,0.00,,,0.00,Weather View 32 v70,2013-11-25 08:29:00,
2013-11-25 03:34:00,15.0,1.0,30.24,ESE,112,1.0,7.0,53,0.00,,,0.00,Weather View 32 v70,2013-11-25 08:34:00,
2013-11-25 03:39:00,15.0,1.0,30.24,North,360,0.0,7.0,53,0.00,,,0.00,Weather View 32 v70,2013-11-25 08:39:00,
2013-11-25 03:44:00,15.0,1.0,30.24,ESE,112,0.0,7.0,53,0.00,,,0.00,Weather View 32 v70,2013-11-25 08:44:00,
2013-11-25 03:49:00,15.0,1.4,30.24,NNW,337,2.0,7.0,54,0.00,,,0.00,Weather View 32 v70,2013-11-25 08:49:00,
2013-11-25 03:54:00,15.0,1.7,30.25,ENE,67,0.0,7.0,55,0.00,,,0.00,Weather View 32 v70,2013-11-25 08:54:00,
2013-11-25 03:59:00,15.0,1.7,30.25,NNW,337,0.0,7.0,55,0.00,,,0.00,Weather View 32 v70,2013-11-25 08:59:00,
2013-11-25 04:04:00,15.0,2.1,30.25,NNW,337,0.0,7.0,56,0.00,,,0.00,Weather View 32 v70,2013-11-25 09:04:00,
2013-11-25 04:09:00,14.0,1.9,30.25,NNW,337,1.0,7.0,58,0.00,,,0.00,Weather View 32 v70,2013-11-25 09:09:00,
2013-11-25 04:14:00,14.0,1.9,30.25,NW,315,0.0,7.0,58,0.00,,,0.00,Weather View 32 v70,2013-11-25 09:14:00,
2013-11-25 04:19:00,15.0,2.5,30.25,NNW,337,0.0,7.0,57,0.00,,,0.00,Weather View 32 v70,2013-11-25 09:19:00,
2013-11-25 04:24:00,14.0,1.9,30.25,NNW,337,3.0,7.0,58,0.00,,,0.00,Weather View 32 v70,2013-11-25 09:24:00,
2013-11-25 04:29:00,14.0,1.9,30.26,NNW,337,5.0,7.0,58,0.00,,,0.00,Weather View 32 v70,2013-11-25 09:29:00,
2013-11-25 04:34:00,15.0,2.5,30.26,North,360,2.0,7.0,57,0.00,,,0.00,Weather View 32 v70,2013-11-25 09:34:00,
2013-11-25 04:39:00,14.0,1.6,30.26,NNW,337,0.0,7.0,57,0.00,,,0.00,Weather View 32 v70,2013-11-25 09:39:00,
2013-11-25 04:44:00,14.0,1.2,30.26,NNW,337,3.0,6.0,56,0.00,,,0.00,Weather View 32 v70,2013-11-25 09:44:00,
2013-11-25 04:49:00,14.0,1.2,30.27,North,360,0.0,7.0,56,0.00,,,0.00,Weather View 32 v70,2013-11-25 09:49:00,
2013-11-25 04:54:00,14.0,1.2,30.27,North,360,2.0,7.0,56,0.00,,,0.00,Weather View 32 v70,2013-11-25 09:54:00,
2013-11-25 04:59:00,14.0,0.8,30.27,WNW,292,0.0,7.0,55,0.00,,,0.00,Weather View 32 v70,2013-11-25 09:59:00,
2013-11-25 05:04:00,14.0,1.2,30.28,NNW,337,0.0,7.0,56,0.00,,,0.00,Weather View 32 v70,2013-11-25 10:04:00,
2013-11-25 05:09:00,14.0,0.8,30.28,NNW,337,1.0,7.0,55,0.00,,,0.00,Weather View 32 v70,2013-11-25 10:09:00,
2013-11-25 05:14:00,14.0,1.2,30.27,NNW,337,2.0,7.0,56,0.00,,,0.00,Weather View 32 v70,2013-11-25 10:14:00,
2013-11-25 05:19:00,14.0,1.2,30.27,ESE,112,2.0,7.0,56,0.00,,,0.00,Weather View 32 v70,2013-11-25 10:19:00,
2013-11-25 05:24:00,14.0,0.8,30.27,NNW,337,2.0,8.0,55,0.00,,,0.00,Weather View 32 v70,2013-11-25 10:24:00,
2013-11-25 05:29:00,14.0,1.2,30.28,NNW,337,0.0,8.0,56,0.00,,,0.00,Weather View 32 v70,2013-11-25 10:29:00,
2013-11-25 05:34:00,14.0,1.2,30.28,NNW,337,2.0,8.0,56,0.00,,,0.00,Weather View 32 v70,2013-11-25 10:34:00,
2013-11-25 05:39:00,14.0,1.2,30.27,East,90,0.0,8.0,56,0.00,,,0.00,Weather View 32 v70,2013-11-25 10:39:00,
2013-11-25 05:44:00,14.0,1.6,30.28,ENE,67,0.0,8.0,57,0.00,,,0.00,Weather View 32 v70,2013-11-25 10:44:00,
2013-11-25 05:49:00,14.0,1.6,30.28,NNW,337,3.0,8.0,57,0.00,,,0.00,Weather View 32 v70,2013-11-25 10:49:00,
2013-11-25 05:54:00,14.0,1.9,30.28,NNW,337,1.0,8.0,58,0.00,,,0.00,Weather View 32 v70,2013-11-25 10:54:00,
2013-11-25 05:59:00,14.0,1.9,30.28,North,360,0.0,8.0,58,0.00,,,0.00,Weather View 32 v70,2013-11-25 10:59:00,
2013-11-25 06:04:00,13.0,1.7,30.28,North,360,0.0,8.0,60,0.00,,,0.00,Weather View 32 v70,2013-11-25 11:04:00,
2013-11-25 06:09:00,13.0,1.7,30.28,ESE,112,1.0,8.0,60,0.00,,,0.00,Weather View 32 v70,2013-11-25 11:09:00,
2013-11-25 06:14:00,14.0,2.7,30.28,NNW,337,0.0,8.0,60,0.00,,,0.00,Weather View 32 v70,2013-11-25 11:14:00,
2013-11-25 06:19:00,13.0,1.7,30.29,NNW,337,0.0,8.0,60,0.00,,,0.00,Weather View 32 v70,2013-11-25 11:19:00,
2013-11-25 06:24:00,13.0,1.7,30.29,NNW,337,1.0,6.0,60,0.00,,,0.00,Weather View 32 v70,2013-11-25 11:24:00,
2013-11-25 06:29:00,13.0,1.7,30.29,NNW,337,1.0,6.0,60,0.00,,,0.00,Weather View 32 v70,2013-11-25 11:29:00,
2013-11-25 06:34:00,13.0,1.7,30.29,NNW,337,0.0,6.0,60,0.00,,,0.00,Weather View 32 v70,2013-11-25 11:34:00,
2013-11-25 06:39:00,13.0,1.4,30.30,NNW,337,0.0,6.0,59,0.00,,,0.00,Weather View 32 v70,2013-11-25 11:39:00,
2013-11-25 06:44:00,13.0,1.4,30.30,North,360,0.0,6.0,59,0.00,,,0.00,Weather View 32 v70,2013-11-25 11:44:00,
2013-11-25 06:49:00,13.0,1.4,30.30,ESE,112,0.0,6.0,59,0.00,,,0.00,Weather View 32 v70,2013-11-25 11:49:00,
2013-11-25 06:54:00,14.0,2.3,30.30,NNW,337,1.0,6.0,59,0.00,,,0.00,Weather View 32 v70,2013-11-25 11:54:00,
2013-11-25 06:59:00,14.0,1.9,30.30,North,360,0.0,6.0,58,0.00,,,0.00,Weather View 32 v70,2013-11-25 11:59:00,
2013-11-25 07:04:00,13.0,1.0,30.30,North,360,0.0,6.0,58,0.00,,,0.00,Weather View 32 v70,2013-11-25 12:04:00,
2013-11-25 07:09:00,13.0,1.4,30.30,WNW,292,0.0,6.0,59,0.00,,,0.00,Weather View 32 v70,2013-11-25 12:09:00,
2013-11-25 07:14:00,13.0,1.4,30.30,NNW,337,0.0,6.0,59,0.00,,,0.00,Weather View 32 v70,2013-11-25 12:14:00,
2013-11-25 07:19:00,14.0,1.9,30.30,NNW,337,2.0,6.0,58,0.00,,,0.00,Weather View 32 v70,2013-11-25 12:19:00,
2013-11-25 07:24:00,14.0,1.6,30.30,NNW,337,0.0,6.0,57,0.00,,,0.00,Weather View 32 v70,2013-11-25 12:24:00,
2013-11-25 07:29:00,14.0,1.9,30.31,NNW,337,0.0,6.0,58,0.00,,,0.00,Weather View 32 v70,2013-11-25 12:29:00,
2013-11-25 07:34:00,14.0,1.2,30.31,NNW,337,0.0,6.0,56,0.00,,,0.00,Weather View 32 v70,2013-11-25 12:34:00,
2013-11-25 07:39:00,15.0,2.9,30.31,NW,315,0.0,6.0,58,0.00,,,0.00,Weather View 32 v70,2013-11-25 12:39:00,
2013-11-25 07:44:00,15.0,1.7,30.31,NNW,337,0.0,6.0,55,0.00,,,0.00,Weather View 32 v70,2013-11-25 12:44:00,
2013-11-25 07:49:00,15.0,1.4,30.32,NNW,337,1.0,6.0,54,0.00,,,0.00,Weather View 32 v70,2013-11-25 12:49:00,
2013-11-25 07:54:00,15.0,2.5,30.32,NNW,337,0.0,6.0,57,0.00,,,0.00,Weather View 32 v70,2013-11-25 12:54:00,
2013-11-25 07:59:00,16.0,1.9,30.31,NW,315,0.0,6.0,53,0.00,,,0.00,Weather View 32 v70,2013-11-25 12:59:00,
2013-11-25 08:04:00,16.0,1.5,30.31,NNW,337,2.0,6.0,52,0.00,,,0.00,Weather View 32 v70,2013-11-25 13:04:00,
2013-11-25 08:09:00,17.0,1.6,30.31,WNW,292,0.0,9.0,50,0.00,,,0.00,Weather View 32 v70,2013-11-25 13:09:00,
2013-11-25 08:14:00,17.0,1.6,30.32,NW,315,1.0,9.0,50,0.00,,,0.00,Weather View 32 v70,2013-11-25 13:14:00,
2013-11-25 08:19:00,17.0,0.2,30.33,NNW,337,1.0,9.0,47,0.00,,,0.00,Weather View 32 v70,2013-11-25 13:19:00,
2013-11-25 08:24:00,18.0,0.2,30.33,WNW,292,0.0,9.0,45,0.00,,,0.00,Weather View 32 v70,2013-11-25 13:24:00,
2013-11-25 08:29:00,20.0,1.1,30.33,NW,315,1.0,9.0,43,0.00,,,0.00,Weather View 32 v70,2013-11-25 13:29:00,
2013-11-25 08:34:00,20.0,1.1,30.33,ESE,112,0.0,9.0,43,0.00,,,0.00,Weather View 32 v70,2013-11-25 13:34:00,
2013-11-25 08:39:00,20.0,-0.4,30.33,SE,135,4.0,9.0,40,0.00,,,0.00,Weather View 32 v70,2013-11-25 13:39:00,
2013-11-25 08:44:00,20.0,-0.4,30.33,ESE,112,5.0,9.0,40,0.00,,,0.00,Weather View 32 v70,2013-11-25 13:44:00,
2013-11-25 08:49:00,21.0,-0.1,30.34,ESE,112,3.0,9.0,39,0.00,,,0.00,Weather View 32 v70,2013-11-25 13:49:00,
2013-11-25 08:54:00,21.0,-1.2,30.34,ESE,112,4.0,9.0,37,0.00,,,0.00,Weather View 32 v70,2013-11-25 13:54:00,
2013-11-25 08:59:00,22.0,0.3,30.33,West,270,0.0,9.0,38,0.00,,,0.00,Weather View 32 v70,2013-11-25 13:59:00,
2013-11-25 09:04:00,23.0,0.0,30.33,NNW,337,6.0,9.0,36,0.00,,,0.00,Weather View 32 v70,2013-11-25 14:04:00,
2013-11-25 09:09:00,23.0,-1.8,30.34,NW,315,3.0,9.0,33,0.00,,,0.00,Weather View 32 v70,2013-11-25 14:09:00,
2013-11-25 09:14:00,23.0,-1.2,30.35,NNW,337,0.0,9.0,34,0.00,,,0.00,Weather View 32 v70,2013-11-25 14:14:00,
2013-11-25 09:19:00,24.0,-0.9,30.35,NW,315,1.0,9.0,33,0.00,,,0.00,Weather View 32 v70,2013-11-25 14:19:00,
2013-11-25 09:24:00,24.0,-2.3,30.35,North,360,0.0,9.0,31,0.00,,,0.00,Weather View 32 v70,2013-11-25 14:24:00,
2013-11-25 09:29:00,25.0,-2.1,30.36,NNW,337,1.0,9.0,30,0.00,,,0.00,Weather View 32 v70,2013-11-25 14:29:00,
2013-11-25 09:34:00,23.0,-3.8,30.36,ESE,112,1.0,10.0,30,0.00,,,0.00,Weather View 32 v70,2013-11-25 14:34:00,
2013-11-25 09:39:00,23.0,-2.5,30.35,NNW,337,4.0,10.0,32,0.00,,,0.00,Weather View 32 v70,2013-11-25 14:39:00,
2013-11-25 09:44:00,24.0,-1.6,30.35,ESE,112,0.0,10.0,32,0.00,,,0.00,Weather View 32 v70,2013-11-25 14:44:00,
2013-11-25 09:49:00,25.0,-0.7,30.36,North,360,3.0,10.0,32,0.00,,,0.00,Weather View 32 v70,2013-11-25 14:49:00,
2013-11-25 09:54:00,26.0,-1.2,30.35,NNW,337,2.0,10.0,30,0.00,,,0.00,Weather View 32 v70,2013-11-25 14:54:00,
2013-11-25 09:59:00,27.0,-1.0,30.35,SW,225,0.0,10.0,29,0.00,,,0.00,Weather View 32 v70,2013-11-25 14:59:00,
2013-11-25 10:04:00,27.0,-1.8,30.35,NE,45,1.0,10.0,28,0.00,,,0.00,Weather View 32 v70,2013-11-25 15:04:00,
2013-11-25 10:09:00,26.0,-2.7,30.36,ENE,67,3.0,10.0,28,0.00,,,0.00,Weather View 32 v70,2013-11-25 15:09:00,
2013-11-25 10:14:00,26.0,-1.9,30.36,ESE,112,6.0,10.0,29,0.00,,,0.00,Weather View 32 v70,2013-11-25 15:14:00,
2013-11-25 10:19:00,26.0,-2.7,30.36,WSW,247,3.0,10.0,28,0.00,,,0.00,Weather View 32 v70,2013-11-25 15:19:00,
2013-11-25 10:24:00,27.0,-1.8,30.35,NW,315,6.0,10.0,28,0.00,,,0.00,Weather View 32 v70,2013-11-25 15:24:00,
2013-11-25 10:29:00,28.0,-1.7,30.35,ESE,112,6.0,10.0,27,0.00,,,0.00,Weather View 32 v70,2013-11-25 15:29:00,
2013-11-25 10:34:00,28.0,-2.5,30.35,ESE,112,5.0,9.0,26,0.00,,,0.00,Weather View 32 v70,2013-11-25 15:34:00,
2013-11-25 10:39:00,26.0,-4.2,30.35,NNW,337,0.0,9.0,26,0.00,,,0.00,Weather View 32 v70,2013-11-25 15:39:00,
2013-11-25 10:44:00,27.0,-3.3,30.35,SE,135,0.0,9.0,26,0.00,,,0.00,Weather View 32 v70,2013-11-25 15:44:00,
2013-11-25 10:49:00,29.0,-2.4,30.35,NNW,337,4.0,9.0,25,0.00,,,0.00,Weather View 32 v70,2013-11-25 15:49:00,
2013-11-25 10:54:00,30.0,-0.8,30.35,ESE,112,5.0,9.0,26,0.00,,,0.00,Weather View 32 v70,2013-11-25 15:54:00,
2013-11-25 10:59:00,29.0,-3.3,30.35,NNW,337,1.0,9.0,24,0.00,,,0.00,Weather View 32 v70,2013-11-25 15:59:00,
2013-11-25 11:04:00,30.0,-2.4,30.35,NW,315,3.0,8.0,24,0.00,,,0.00,Weather View 32 v70,2013-11-25 16:04:00,
2013-11-25 11:09:00,31.0,-1.6,30.35,NNW,337,3.0,8.0,24,0.00,,,0.00,Weather View 32 v70,2013-11-25 16:09:00,
2013-11-25 11:14:00,31.0,-3.4,30.35,SSE,157,0.0,8.0,22,0.00,,,0.00,Weather View 32 v70,2013-11-25 16:14:00,
2013-11-25 11:19:00,31.0,-4.4,30.35,East,90,6.0,8.0,21,0.00,,,0.00,Weather View 32 v70,2013-11-25 16:19:00,
2013-11-25 11:24:00,28.0,-6.9,30.35,ESE,112,4.0,12.0,21,0.00,,,0.00,Weather View 32 v70,2013-11-25 16:24:00,
2013-11-25 11:29:00,30.0,-4.3,30.35,NNE,22,1.0,12.0,22,0.00,,,0.00,Weather View 32 v70,2013-11-25 16:29:00,
2013-11-25 11:34:00,32.0,-3.6,30.35,NNW,337,4.0,12.0,21,0.00,,,0.00,Weather View 32 v70,2013-11-25 16:34:00,
2013-11-25 11:39:00,33.0,-3.7,30.35,WNW,292,0.0,12.0,20,0.00,,,0.00,Weather View 32 v70,2013-11-25 16:39:00,
2013-11-25 11:44:00,33.0,-4.8,30.35,North,360,3.0,12.0,19,0.00,,,0.00,Weather View 32 v70,2013-11-25 16:44:00,
2013-11-25 11:49:00,32.0,-5.6,30.35,East,90,0.0,12.0,19,0.00,,,0.00,Weather View 32 v70,2013-11-25 16:49:00,
2013-11-25 11:54:00,32.0,-5.6,30.35,NW,315,7.0,12.0,19,0.00,,,0.00,Weather View 32 v70,2013-11-25 16:54:00,
2013-11-25 11:59:00,31.0,-6.5,30.35,ESE,112,1.0,12.0,19,0.00,,,0.00,Weather View 32 v70,2013-11-25 16:59:00,
2013-11-25 12:05:00,30.0,-5.2,30.34,East,90,1.0,12.0,21,0.00,,,0.00,Weather View 32 v70,2013-11-25 17:05:00,
2013-11-25 12:10:00,30.0,-6.2,30.34,SSW,202,0.0,12.0,20,0.00,,,0.00,Weather View 32 v70,2013-11-25 17:10:00,
2013-11-25 12:15:00,30.0,-6.2,30.34,West,270,1.0,12.0,20,0.00,,,0.00,Weather View 32 v70,2013-11-25 17:15:00,
2013-11-25 12:20:00,30.0,-5.2,30.33,SE,135,4.0,12.0,21,0.00,,,0.00,Weather View 32 v70,2013-11-25 17:20:00,
2013-11-25 12:25:00,30.0,-4.3,30.33,ESE,112,6.0,12.0,22,0.00,,,0.00,Weather View 32 v70,2013-11-25 17:25:00,
2013-11-25 12:30:00,31.0,-4.4,30.33,SW,225,3.0,12.0,21,0.00,,,0.00,Weather View 32 v70,2013-11-25 17:30:00,
2013-11-25 12:35:00,32.0,-1.6,30.34,SE,135,8.0,12.0,23,0.00,,,0.00,Weather View 32 v70,2013-11-25 17:35:00,
2013-11-25 12:40:00,31.0,-0.7,30.33,ESE,112,3.0,12.0,25,0.00,,,0.00,Weather View 32 v70,2013-11-25 17:40:00,
2013-11-25 12:45:00,31.0,0.1,30.33,ESE,112,0.0,13.0,26,0.00,,,0.00,Weather View 32 v70,2013-11-25 17:45:00,
2013-11-25 12:50:00,31.0,0.1,30.32,SSE,157,3.0,13.0,26,0.00,,,0.00,Weather View 32 v70,2013-11-25 17:50:00,
2013-11-25 12:55:00,32.0,1.8,30.32,SE,135,4.0,13.0,27,0.00,,,0.00,Weather View 32 v70,2013-11-25 17:55:00,
2013-11-25 13:00:00,31.0,1.7,30.31,ESE,112,7.0,13.0,28,0.00,,,0.00,Weather View 32 v70,2013-11-25 18:00:00,
2013-11-25 13:05:00,32.0,1.0,30.31,NNW,337,2.0,13.0,26,0.00,,,0.00,Weather View 32 v70,2013-11-25 18:05:00,
2013-11-25 13:10:00,33.0,0.1,30.32,ESE,112,6.0,13.0,24,0.00,,,0.00,Weather View 32 v70,2013-11-25 18:10:00,
2013-11-25 13:15:00,33.0,1.8,30.32,WSW,247,0.0,13.0,26,0.00,,,0.00,Weather View 32 v70,2013-11-25 18:15:00,
2013-11-25 13:20:00,34.0,1.8,30.32,NW,315,4.0,13.0,25,0.00,,,0.00,Weather View 32 v70,2013-11-25 18:20:00,
2013-11-25 13:25:00,34.0,2.7,30.32,NNW,337,2.0,13.0,26,0.00,,,0.00,Weather View 32 v70,2013-11-25 18:25:00,
2013-11-25 13:30:00,34.0,3.5,30.32,South,180,1.0,13.0,27,0.00,,,0.00,Weather View 32 v70,2013-11-25 18:30:00,
2013-11-25 13:35:00,35.0,4.4,30.32,NW,315,3.0,13.0,27,0.00,,,0.00,Weather View 32 v70,2013-11-25 18:35:00,
2013-11-25 13:40:00,35.0,4.4,30.32,NNW,337,7.0,13.0,27,0.00,,,0.00,Weather View 32 v70,2013-11-25 18:40:00,
2013-11-25 13:45:00,34.0,3.5,30.33,NE,45,0.0,12.0,27,0.00,,,0.00,Weather View 32 v70,2013-11-25 18:45:00,
2013-11-25 13:50:00,35.0,4.4,30.33,ESE,112,3.0,12.0,27,0.00,,,0.00,Weather View 32 v70,2013-11-25 18:50:00,
2013-11-25 13:55:00,34.0,4.3,30.32,NE,45,1.0,12.0,28,0.00,,,0.00,Weather View 32 v70,2013-11-25 18:55:00,
2013-11-25 14:00:00,35.0,3.5,30.32,NW,315,0.0,12.0,26,0.00,,,0.00,Weather View 32 v70,2013-11-25 19:00:00,
2013-11-25 14:05:00,36.0,4.4,30.33,WSW,247,1.0,12.0,26,0.00,,,0.00,Weather View 32 v70,2013-11-25 19:05:00,
2013-11-25 14:10:00,36.0,3.6,30.33,NNW,337,4.0,12.0,25,0.00,,,0.00,Weather View 32 v70,2013-11-25 19:10:00,
2013-11-25 14:15:00,36.0,2.7,30.33,WNW,292,0.0,12.0,24,0.00,,,0.00,Weather View 32 v70,2013-11-25 19:15:00,
2013-11-25 14:20:00,35.0,3.5,30.32,NW,315,3.0,12.0,26,0.00,,,0.00,Weather View 32 v70,2013-11-25 19:20:00,
2013-11-25 14:25:00,35.0,3.5,30.32,NNW,337,7.0,11.0,26,0.00,,,0.00,Weather View 32 v70,2013-11-25 19:25:00,
2013-11-25 14:30:00,34.0,3.5,30.32,NNW,337,0.0,11.0,27,0.00,,,0.00,Weather View 32 v70,2013-11-25 19:30:00,
2013-11-25 14:35:00,33.0,3.4,30.32,North,360,1.0,11.0,28,0.00,,,0.00,Weather View 32 v70,2013-11-25 19:35:00,
2013-11-25 14:40:00,33.0,4.2,30.32,NNW,337,4.0,11.0,29,0.00,,,0.00,Weather View 32 v70,2013-11-25 19:40:00,
2013-11-25 14:45:00,32.0,3.3,30.31,NNW,337,5.0,11.0,29,0.00,,,0.00,Weather View 32 v70,2013-11-25 19:45:00,
2013-11-25 14:50:00,32.0,4.8,30.32,NNE,22,0.0,11.0,31,0.00,,,0.00,Weather View 32 v70,2013-11-25 19:50:00,
2013-11-25 14:55:00,31.0,4.6,30.31,SSW,202,1.0,11.0,32,0.00,,,0.00,Weather View 32 v70,2013-11-25 19:55:00,
2013-11-25 15:00:00,31.0,5.2,30.31,ESE,112,1.0,11.0,33,0.00,,,0.00,Weather View 32 v70,2013-11-25 20:00:00,
2013-11-25 15:05:00,31.0,5.2,30.31,NNW,337,0.0,11.0,33,0.00,,,0.00,Weather View 32 v70,2013-11-25 20:05:00,
2013-11-25 15:10:00,31.0,6.5,30.31,NNW,337,0.0,11.0,35,0.00,,,0.00,Weather View 32 v70,2013-11-25 20:10:00,
2013-11-25 15:15:00,31.0,6.5,30.31,NNW,337,3.0,11.0,35,0.00,,,0.00,Weather View 32 v70,2013-11-25 20:15:00,
2013-11-25 15:20:00,31.0,6.5,30.31,NNE,22,3.0,11.0,35,0.00,,,0.00,Weather View 32 v70,2013-11-25 20:20:00,
2013-11-25 15:26:00,31.0,7.2,30.31,NNW,337,3.0,11.0,36,0.00,,,0.00,Weather View 32 v70,2013-11-25 20:26:00,
2013-11-25 15:31:00,30.0,6.9,30.31,WSW,247,0.0,11.0,37,0.00,,,0.00,Weather View 32 v70,2013-11-25 20:31:00,
2013-11-25 15:36:00,30.0,7.4,30.32,WSW,247,0.0,11.0,38,0.00,,,0.00,Weather View 32 v70,2013-11-25 20:36:00,
2013-11-25 15:41:00,30.0,6.9,30.32,NNW,337,3.0,11.0,37,0.00,,,0.00,Weather View 32 v70,2013-11-25 20:41:00,
2013-11-25 15:46:00,30.0,7.4,30.32,WSW,247,2.0,11.0,38,0.00,,,0.00,Weather View 32 v70,2013-11-25 20:46:00,
2013-11-25 15:51:00,30.0,7.4,30.32,West,270,1.0,11.0,38,0.00,,,0.00,Weather View 32 v70,2013-11-25 20:51:00,
2013-11-25 15:56:00,30.0,8.0,30.32,SSW,202,0.0,11.0,39,0.00,,,0.00,Weather View 32 v70,2013-11-25 20:56:00,
2013-11-25 16:01:00,29.0,7.7,30.32,WSW,247,0.0,11.0,40,0.00,,,0.00,Weather View 32 v70,2013-11-25 21:01:00,
2013-11-25 16:06:00,29.0,7.7,30.32,North,360,0.0,11.0,40,0.00,,,0.00,Weather View 32 v70,2013-11-25 21:06:00,
2013-11-25 16:11:00,29.0,8.2,30.32,North,360,1.0,11.0,41,0.00,,,0.00,Weather View 32 v70,2013-11-25 21:11:00,
2013-11-25 16:16:00,29.0,8.8,30.32,North,360,0.0,11.0,42,0.00,,,0.00,Weather View 32 v70,2013-11-25 21:16:00,
2013-11-25 16:21:00,28.0,7.9,30.32,North,360,0.0,6.0,42,0.00,,,0.00,Weather View 32 v70,2013-11-25 21:21:00,
2013-11-25 16:26:00,28.0,8.4,30.32,North,360,0.0,6.0,43,0.00,,,0.00,Weather View 32 v70,2013-11-25 21:26:00,
2013-11-25 16:31:00,27.0,8.0,30.31,North,360,0.0,6.0,44,0.00,,,0.00,Weather View 32 v70,2013-11-25 21:31:00,
2013-11-25 16:36:00,26.0,8.0,30.32,North,360,0.0,6.0,46,0.00,,,0.00,Weather View 32 v70,2013-11-25 21:36:00,
2013-11-25 16:41:00,26.0,8.5,30.31,North,360,0.0,6.0,47,0.00,,,0.00,Weather View 32 v70,2013-11-25 21:41:00,
2013-11-25 16:46:00,26.0,9.0,30.31,North,360,0.0,6.0,48,0.00,,,0.00,Weather View 32 v70,2013-11-25 21:46:00,
2013-11-25 16:51:00,25.0,8.5,30.32,North,360,0.0,6.0,49,0.00,,,0.00,Weather View 32 v70,2013-11-25 21:51:00,
2013-11-25 16:56:00,25.0,9.0,30.32,North,360,0.0,6.0,50,0.00,,,0.00,Weather View 32 v70,2013-11-25 21:56:00,
2013-11-25 17:01:00,25.0,9.4,30.32,North,360,0.0,6.0,51,0.00,,,0.00,Weather View 32 v70,2013-11-25 22:01:00,
2013-11-25 17:06:00,25.0,9.8,30.32,North,360,0.0,2.0,52,0.00,,,0.00,Weather View 32 v70,2013-11-25 22:06:00,
2013-11-25 17:11:00,24.0,9.3,30.32,North,360,0.0,1.0,53,0.00,,,0.00,Weather View 32 v70,2013-11-25 22:11:00,
2013-11-25 17:16:00,24.0,9.8,30.32,North,360,0.0,0.0,54,0.00,,,0.00,Weather View 32 v70,2013-11-25 22:16:00,
2013-11-25 17:21:00,24.0,10.2,30.32,North,360,0.0,0.0,55,0.00,,,0.00,Weather View 32 v70,2013-11-25 22:21:00,
2013-11-25 17:26:00,23.0,9.2,30.32,North,360,0.0,0.0,55,0.00,,,0.00,Weather View 32 v70,2013-11-25 22:26:00,
2013-11-25 17:31:00,23.0,9.6,30.32,North,360,0.0,0.0,56,0.00,,,0.00,Weather View 32 v70,2013-11-25 22:31:00,
2013-11-25 17:36:00,23.0,10.0,30.32,North,360,0.0,0.0,57,0.00,,,0.00,Weather View 32 v70,2013-11-25 22:36:00,
2013-11-25 17:41:00,23.0,10.0,30.32,North,360,0.0,0.0,57,0.00,,,0.00,Weather View 32 v70,2013-11-25 22:41:00,
2013-11-25 17:46:00,23.0,10.0,30.32,North,360,0.0,0.0,57,0.00,,,0.00,Weather View 32 v70,2013-11-25 22:46:00,
2013-11-25 17:51:00,23.0,10.0,30.32,North,360,0.0,0.0,57,0.00,,,0.00,Weather View 32 v70,2013-11-25 22:51:00,
2013-11-25 17:57:00,23.0,10.4,30.32,North,360,0.0,0.0,58,0.00,,,0.00,Weather View 32 v70,2013-11-25 22:57:00,
2013-11-25 18:02:00,23.0,10.0,30.31,North,360,0.0,0.0,57,0.00,,,0.00,Weather View 32 v70,2013-11-25 23:02:00,
2013-11-25 18:07:00,23.0,10.8,30.31,North,360,0.0,0.0,59,0.00,,,0.00,Weather View 32 v70,2013-11-25 23:07:00,
2013-11-25 18:12:00,23.0,10.4,30.31,SSW,202,0.0,3.0,58,0.00,,,0.00,Weather View 32 v70,2013-11-25 23:12:00,
2013-11-25 18:17:00,23.0,10.4,30.32,NW,315,0.0,3.0,58,0.00,,,0.00,Weather View 32 v70,2013-11-25 23:17:00,
2013-11-25 18:22:00,23.0,10.8,30.31,NW,315,0.0,3.0,59,0.00,,,0.00,Weather View 32 v70,2013-11-25 23:22:00,
2013-11-25 18:27:00,23.0,10.8,30.32,NW,315,0.0,3.0,59,0.00,,,0.00,Weather View 32 v70,2013-11-25 23:27:00,
2013-11-25 18:32:00,23.0,10.8,30.32,NW,315,0.0,3.0,59,0.00,,,0.00,Weather View 32 v70,2013-11-25 23:32:00,
2013-11-25 18:37:00,23.0,10.8,30.32,NW,315,0.0,3.0,59,0.00,,,0.00,Weather View 32 v70,2013-11-25 23:37:00,
2013-11-25 18:42:00,23.0,10.8,30.32,NW,315,0.0,3.0,59,0.00,,,0.00,Weather View 32 v70,2013-11-25 23:42:00,
2013-11-25 18:47:00,23.0,10.8,30.32,NW,315,0.0,3.0,59,0.00,,,0.00,Weather View 32 v70,2013-11-25 23:47:00,
2013-11-25 18:52:00,23.0,10.8,30.32,NW,315,0.0,3.0,59,0.00,,,0.00,Weather View 32 v70,2013-11-25 23:52:00,
2013-11-25 18:57:00,23.0,11.2,30.32,NW,315,0.0,3.0,60,0.00,,,0.00,Weather View 32 v70,2013-11-25 23:57:00,
2013-11-25 19:02:00,23.0,11.6,30.31,NW,315,0.0,3.0,61,0.00,,,0.00,Weather View 32 v70,2013-11-26 00:02:00,
2013-11-25 19:07:00,23.0,11.6,30.30,NW,315,0.0,3.0,61,0.00,,,0.00,Weather View 32 v70,2013-11-26 00:07:00,
2013-11-25 19:12:00,24.0,11.7,30.30,SE,135,0.0,2.0,59,0.00,,,0.00,Weather View 32 v70,2013-11-26 00:12:00,
2013-11-25 19:17:00,24.0,11.7,30.30,SSW,202,1.0,5.0,59,0.00,,,0.00,Weather View 32 v70,2013-11-26 00:17:00,
2013-11-25 19:22:00,24.0,11.7,30.30,SSE,157,0.0,5.0,59,0.00,,,0.00,Weather View 32 v70,2013-11-26 00:22:00,
2013-11-25 19:27:00,24.0,11.4,30.31,SSE,157,0.0,5.0,58,0.00,,,0.00,Weather View 32 v70,2013-11-26 00:27:00,
2013-11-25 19:32:00,25.0,11.9,30.32,NNW,337,0.0,5.0,57,0.00,,,0.00,Weather View 32 v70,2013-11-26 00:32:00,
2013-11-25 19:37:00,25.0,12.3,30.31,West,270,0.0,5.0,58,0.00,,,0.00,Weather View 32 v70,2013-11-26 00:37:00,
2013-11-25 19:42:00,25.0,11.9,30.31,West,270,0.0,5.0,57,0.00,,,0.00,Weather View 32 v70,2013-11-26 00:42:00,
2013-11-25 19:47:00,25.0,12.3,30.31,West,270,0.0,5.0,58,0.00,,,0.00,Weather View 32 v70,2013-11-26 00:47:00,
2013-11-25 19:52:00,25.0,11.9,30.30,NNW,337,0.0,5.0,57,0.00,,,0.00,Weather View 32 v70,2013-11-26 00:52:00,
2013-11-25 19:57:00,25.0,11.9,30.30,NW,315,0.0,5.0,57,0.00,,,0.00,Weather View 32 v70,2013-11-26 00:57:00,
2013-11-25 20:02:00,25.0,12.3,30.30,WNW,292,0.0,5.0,58,0.00,,,0.00,Weather View 32 v70,2013-11-26 01:02:00,
2013-11-25 20:07:00,25.0,11.9,30.30,NW,315,2.0,5.0,57,0.00,,,0.00,Weather View 32 v70,2013-11-26 01:07:00,
2013-11-25 20:12:00,25.0,12.3,30.30,NNE,22,0.0,5.0,58,0.00,,,0.00,Weather View 32 v70,2013-11-26 01:12:00,
2013-11-25 20:17:00,26.0,12.8,30.31,NNW,337,0.0,4.0,57,0.00,,,0.00,Weather View 32 v70,2013-11-26 01:17:00,
2013-11-25 20:22:00,26.0,12.8,30.31,NNW,337,0.0,4.0,57,0.00,,,0.00,Weather View 32 v70,2013-11-26 01:22:00,
2013-11-25 20:27:00,26.0,12.4,30.31,WNW,292,0.0,4.0,56,0.00,,,0.00,Weather View 32 v70,2013-11-26 01:27:00,
2013-11-25 20:32:00,26.0,12.8,30.30,WNW,292,1.0,4.0,57,0.00,,,0.00,Weather View 32 v70,2013-11-26 01:32:00,
2013-11-25 20:38:00,26.0,12.8,30.30,SW,225,0.0,4.0,57,0.00,,,0.00,Weather View 32 v70,2013-11-26 01:38:00,
2013-11-25 20:43:00,26.0,13.2,30.30,West,270,0.0,5.0,58,0.00,,,0.00,Weather View 32 v70,2013-11-26 01:43:00,
2013-11-25 20:48:00,26.0,12.8,30.29,WSW,247,0.0,5.0,57,0.00,,,0.00,Weather View 32 v70,2013-11-26 01:48:00,
2013-11-25 20:53:00,26.0,12.8,30.29,WNW,292,0.0,5.0,57,0.00,,,0.00,Weather View 32 v70,2013-11-26 01:53:00,
2013-11-25 20:58:00,26.0,12.8,30.29,NW,315,0.0,5.0,57,0.00,,,0.00,Weather View 32 v70,2013-11-26 01:58:00,
2013-11-25 21:03:00,27.0,13.8,30.28,WNW,292,0.0,5.0,57,0.00,,,0.00,Weather View 32 v70,2013-11-26 02:03:00,
2013-11-25 21:08:00,27.0,13.4,30.28,NNW,337,0.0,6.0,56,0.00,,,0.00,Weather View 32 v70,2013-11-26 02:08:00,
2013-11-25 21:13:00,27.0,13.0,30.27,WSW,247,0.0,6.0,55,0.00,,,0.00,Weather View 32 v70,2013-11-26 02:13:00,
2013-11-25 21:18:00,27.0,13.4,30.27,SSE,157,0.0,6.0,56,0.00,,,0.00,Weather View 32 v70,2013-11-26 02:18:00,
2013-11-25 21:23:00,27.0,13.0,30.27,WSW,247,0.0,6.0,55,0.00,,,0.00,Weather View 32 v70,2013-11-26 02:23:00,
2013-11-25 21:28:00,27.0,13.0,30.27,WSW,247,0.0,6.0,55,0.00,,,0.00,Weather View 32 v70,2013-11-26 02:28:00,
2013-11-25 21:33:00,27.0,13.0,30.27,NW,315,0.0,6.0,55,0.00,,,0.00,Weather View 32 v70,2013-11-26 02:33:00,
2013-11-25 21:38:00,27.0,13.4,30.27,SSW,202,2.0,6.0,56,0.00,,,0.00,Weather View 32 v70,2013-11-26 02:38:00,
2013-11-25 21:43:00,27.0,13.0,30.27,North,360,0.0,6.0,55,0.00,,,0.00,Weather View 32 v70,2013-11-26 02:43:00,
2013-11-25 21:48:00,27.0,13.4,30.27,WSW,247,0.0,6.0,56,0.00,,,0.00,Weather View 32 v70,2013-11-26 02:48:00,
2013-11-25 21:53:00,27.0,13.4,30.27,NNW,337,2.0,6.0,56,0.00,,,0.00,Weather View 32 v70,2013-11-26 02:53:00,
2013-11-25 21:58:00,27.0,13.4,30.26,NW,315,0.0,6.0,56,0.00,,,0.00,Weather View 32 v70,2013-11-26 02:58:00,
2013-11-25 22:03:00,27.0,13.8,30.26,SW,225,3.0,6.0,57,0.00,,,0.00,Weather View 32 v70,2013-11-26 03:03:00,
2013-11-25 22:08:00,27.0,13.8,30.27,ESE,112,0.0,6.0,57,0.00,,,0.00,Weather View 32 v70,2013-11-26 03:08:00,
2013-11-25 22:13:00,27.0,13.8,30.27,North,360,0.0,6.0,57,0.00,,,0.00,Weather View 32 v70,2013-11-26 03:13:00,
2013-11-25 22:18:00,28.0,14.7,30.26,West,270,0.0,6.0,57,0.00,,,0.00,Weather View 32 v70,2013-11-26 03:18:00,
2013-11-25 22:23:00,28.0,14.7,30.26,West,270,0.0,6.0,57,0.00,,,0.00,Weather View 32 v70,2013-11-26 03:23:00,
2013-11-25 22:28:00,28.0,14.7,30.26,West,270,0.0,6.0,57,0.00,,,0.00,Weather View 32 v70,2013-11-26 03:28:00,
2013-11-25 22:33:00,28.0,15.1,30.25,WNW,292,0.0,6.0,58,0.00,,,0.00,Weather View 32 v70,2013-11-26 03:33:00,
2013-11-25 22:38:00,28.0,15.5,30.26,WNW,292,0.0,6.0,59,0.00,,,0.00,Weather View 32 v70,2013-11-26 03:38:00,
2013-11-25 22:43:00,28.0,15.1,30.26,NW,315,1.0,6.0,58,0.00,,,0.00,Weather View 32 v70,2013-11-26 03:43:00,
2013-11-25 22:48:00,28.0,15.5,30.26,WNW,292,1.0,6.0,59,0.00,,,0.00,Weather View 32 v70,2013-11-26 03:48:00,
2013-11-25 22:53:00,28.0,15.5,30.26,West,270,0.0,6.0,59,0.00,,,0.00,Weather View 32 v70,2013-11-26 03:53:00,
2013-11-25 22:58:00,28.0,16.3,30.25,North,360,0.0,5.0,61,0.00,,,0.00,Weather View 32 v70,2013-11-26 03:58:00,
2013-11-25 23:03:00,28.0,16.3,30.25,WNW,292,0.0,5.0,61,0.00,,,0.00,Weather View 32 v70,2013-11-26 04:03:00,
2013-11-25 23:08:00,28.0,16.3,30.25,WNW,292,0.0,5.0,61,0.00,,,0.00,Weather View 32 v70,2013-11-26 04:08:00,
2013-11-25 23:13:00,28.0,16.3,30.25,North,360,1.0,5.0,61,0.00,,,0.00,Weather View 32 v70,2013-11-26 04:13:00,
2013-11-25 23:18:00,28.0,16.7,30.25,NW,315,2.0,5.0,62,0.00,,,0.00,Weather View 32 v70,2013-11-26 04:18:00,
2013-11-25 23:23:00,28.0,16.7,30.25,West,270,1.0,5.0,62,0.00,,,0.00,Weather View 32 v70,2013-11-26 04:23:00,
2013-11-25 23:28:00,28.0,17.0,30.25,West,270,0.0,5.0,63,0.00,,,0.00,Weather View 32 v70,2013-11-26 04:28:00,
2013-11-25 23:33:00,28.0,17.0,30.26,West,270,0.0,5.0,63,0.00,,,0.00,Weather View 32 v70,2013-11-26 04:33:00,
2013-11-25 23:38:00,28.0,17.0,30.25,West,270,2.0,5.0,63,0.00,,,0.00,Weather View 32 v70,2013-11-26 04:38:00,
2013-11-25 23:43:00,28.0,17.4,30.25,West,270,0.0,5.0,64,0.00,,,0.00,Weather View 32 v70,2013-11-26 04:43:00,
2013-11-25 23:48:00,28.0,17.8,30.25,West,270,0.0,5.0,65,0.00,,,0.00,Weather View 32 v70,2013-11-26 04:48:00,
2013-11-25 23:53:00,29.0,18.7,30.25,WSW,247,0.0,5.0,65,0.00,,,0.00,Weather View 32 v70,2013-11-26 04:53:00,
2013-11-25 23:58:00,29.0,18.7,30.25,WSW,247,0.0,5.0,65,0.00,,,0.00,Weather View 32 v70,2013-11-26 04:58:00,